When you browse on this site, cookies collect data to enhance your experience and personalize the content and advertising you see.
Visit our Privacy Policy to learn more. By continuing to use the site, you agree to this use of cookies and data.
  • In United Kingdom
  • List of Countries
  • For 7 days
  • Water Temperature
  • Satellite Maps
  • Weather Map
  • Weather Widgets
  • user-avatar
    Login

    Hourly Weather Santiago Matatlan

    Today, 25 April, Thursday

    Time Temperature Precipitation Wind Pressure Humidity
    00:00 +20°C° 0 mm 1 mps 615 mmHg 65%
    01:00 +20°C° 0 mm 1 mps 615 mmHg 67%
    02:00 +19°C° 0 mm 1 mps 615 mmHg 68%
    03:00 +19°C° 0 mm 1 mps 614 mmHg 70%
    04:00 +17°C° 0 mm 2 mps 614 mmHg 72%
    05:00 +17°C° 0 mm 2 mps 614 mmHg 74%
    06:00 +16°C° 0 mm 2 mps 614 mmHg 76%
    07:00 +19°C° 0 mm 2 mps 615 mmHg 65%
    08:00 +21°C° 0 mm 2 mps 616 mmHg 53%
    09:00 +24°C° 0 mm 2 mps 618 mmHg 42%
    10:00 +27°C° 0 mm 2 mps 618 mmHg 37%
    11:00 +29°C° 0 mm 2 mps 619 mmHg 31%
    12:00 +31°C° 0 mm 2 mps 620 mmHg 25%
    13:00 +30°C° 0 mm 2 mps 619 mmHg 27%
    14:00 +30°C° 0 mm 2 mps 619 mmHg 28%
    15:00 +30°C° 0 mm 2 mps 618 mmHg 29%
    16:00 +29°C° 0 mm 3 mps 618 mmHg 35%
    17:00 +27°C° 0 mm 3 mps 618 mmHg 40%
    18:00 +26°C° 0 mm 4 mps 618 mmHg 45%
    19:00 +25°C° 0.2 mm 3 mps 618 mmHg 52%
    20:00 +23°C° 0.2 mm 2 mps 618 mmHg 59%
    21:00 +21°C° 0.2 mm 1 mps 618 mmHg 66%
    22:00 +21°C° 0.1 mm 1 mps 618 mmHg 70%
    23:00 +20°C° 0.1 mm 1 mps 618 mmHg 74%

    Tomorrow, 26 April, Friday

    Time Temperature Precipitation Wind Pressure Humidity
    00:00 +20°C° 0.1 mm 1 mps 618 mmHg 78%
    01:00 +20°C° 0 mm 1 mps 618 mmHg 80%
    02:00 +19°C° 0 mm 1 mps 617 mmHg 82%
    03:00 +19°C° 0 mm 1 mps 617 mmHg 84%
    04:00 +19°C° 0 mm 1 mps 617 mmHg 87%
    05:00 +18°C° 0 mm 1 mps 617 mmHg 89%
    06:00 +18°C° 0 mm 1 mps 617 mmHg 91%
    07:00 +19°C° 0 mm 1 mps 618 mmHg 81%
    08:00 +20°C° 0 mm 2 mps 619 mmHg 72%
    09:00 +23°C° 0 mm 2 mps 619 mmHg 62%
    10:00 +24°C° 0 mm 2 mps 620 mmHg 53%
    11:00 +26°C° 0 mm 2 mps 620 mmHg 45%
    12:00 +28°C° 0 mm 2 mps 621 mmHg 36%
    13:00 +28°C° 0 mm 3 mps 620 mmHg 36%
    14:00 +29°C° 0 mm 3 mps 620 mmHg 37%
    15:00 +29°C° 0 mm 4 mps 620 mmHg 37%
    16:00 +27°C° 0.1 mm 4 mps 619 mmHg 44%
    17:00 +26°C° 0.1 mm 4 mps 619 mmHg 51%
    18:00 +23°C° 0.1 mm 4 mps 618 mmHg 58%
    19:00 +22°C° 0 mm 3 mps 618 mmHg 63%
    20:00 +21°C° 0 mm 3 mps 618 mmHg 69%
    21:00 +19°C° 0 mm 2 mps 619 mmHg 74%
    22:00 +19°C° 0 mm 2 mps 619 mmHg 77%
    23:00 +18°C° 0 mm 2 mps 618 mmHg 80%

    Day after tomorrow, 27 April, Saturday

    Time Temperature Precipitation Wind Pressure Humidity
    00:00 +18°C° 0 mm 1 mps 618 mmHg 82%
    01:00 +18°C° 0 mm 1 mps 617 mmHg 81%
    02:00 +16°C° 0 mm 1 mps 617 mmHg 80%
    03:00 +15°C° 0 mm 1 mps 616 mmHg 79%
    04:00 +15°C° 0 mm 1 mps 616 mmHg 74%
    05:00 +15°C° 0 mm 1 mps 616 mmHg 70%
    06:00 +15°C° 0 mm 1 mps 616 mmHg 65%
    07:00 +19°C° 0 mm 1 mps 617 mmHg 54%
    08:00 +21°C° 0 mm 1 mps 618 mmHg 43%
    09:00 +22°C° 0 mm 0 mps 620 mmHg 32%
    10:00 +26°C° 0 mm 1 mps 620 mmHg 28%
    11:00 +28°C° 0 mm 1 mps 620 mmHg 25%
    12:00 +29°C° 0 mm 2 mps 620 mmHg 21%
    13:00 +30°C° 0 mm 2 mps 620 mmHg 20%
    14:00 +30°C° 0 mm 3 mps 619 mmHg 19%
    15:00 +31°C° 0 mm 3 mps 619 mmHg 19%
    16:00 +29°C° 0 mm 4 mps 618 mmHg 21%
    17:00 +28°C° 0 mm 4 mps 618 mmHg 24%
    18:00 +27°C° 0 mm 4 mps 617 mmHg 27%
    19:00 +25°C° 0 mm 3 mps 617 mmHg 34%
    20:00 +23°C° 0 mm 2 mps 617 mmHg 40%
    21:00 +21°C° 0 mm 1 mps 617 mmHg 47%
    22:00 +20°C° 0 mm 1 mps 617 mmHg 49%
    23:00 +17°C° 0 mm 0 mps 617 mmHg 52%

    28 April, Sunday

    Time Temperature Precipitation Wind Pressure Humidity
    00:00 +17°C° 0 mm 0 mps 617 mmHg 55%
    01:00 +16°C° 0 mm 0 mps 616 mmHg 54%
    02:00 +18°C° 0 mm 1 mps 615 mmHg 53%
    03:00 +18°C° 0 mm 1 mps 615 mmHg 52%
    04:00 +16°C° 0 mm 1 mps 615 mmHg 53%
    05:00 +16°C° 0 mm 1 mps 615 mmHg 53%
    06:00 +16°C° 0 mm 1 mps 615 mmHg 54%
    07:00 +20°C° 0 mm 1 mps 616 mmHg 48%
    08:00 +23°C° 0 mm 1 mps 618 mmHg 43%
    09:00 +25°C° 0 mm 1 mps 619 mmHg 37%
    10:00 +27°C° 0 mm 1 mps 619 mmHg 32%
    11:00 +29°C° 0 mm 1 mps 620 mmHg 27%
    12:00 +31°C° 0 mm 2 mps 620 mmHg 21%
    13:00 +31°C° 0 mm 2 mps 619 mmHg 21%
    14:00 +31°C° 0 mm 3 mps 619 mmHg 20%
    15:00 +32°C° 0 mm 4 mps 618 mmHg 19%
    16:00 +30°C° 0 mm 4 mps 618 mmHg 24%
    17:00 +28°C° 0 mm 4 mps 618 mmHg 28%
    18:00 +27°C° 0 mm 4 mps 617 mmHg 32%
    19:00 +25°C° 0 mm 3 mps 617 mmHg 38%
    20:00 +24°C° 0 mm 2 mps 617 mmHg 44%
    21:00 +22°C° 0 mm 1 mps 617 mmHg 51%
    22:00 +21°C° 0 mm 1 mps 617 mmHg 54%
    23:00 +20°C° 0 mm 1 mps 617 mmHg 58%

    29 April, Monday

    Time Temperature Precipitation Wind Pressure Humidity
    00:00 +17°C° 0 mm 0 mps 617 mmHg 62%
    01:00 +17°C° 0 mm 0 mps 616 mmHg 64%
    02:00 +16°C° 0 mm 0 mps 615 mmHg 66%
    03:00 +16°C° 0 mm 0 mps 615 mmHg 68%
    04:00 +16°C° 0 mm 0 mps 615 mmHg 69%
    05:00 +15°C° 0 mm 0 mps 615 mmHg 70%
    06:00 +16°C° 0 mm 1 mps 615 mmHg 72%
    07:00 +18°C° 0 mm 0 mps 616 mmHg 60%
    08:00 +21°C° 0 mm 0 mps 618 mmHg 48%
    09:00 +24°C° 0 mm 0 mps 619 mmHg 36%
    10:00 +27°C° 0 mm 1 mps 620 mmHg 31%
    11:00 +29°C° 0 mm 2 mps 620 mmHg 25%
    12:00 +30°C° 0 mm 3 mps 620 mmHg 20%
    13:00 +31°C° 0 mm 3 mps 620 mmHg 19%
    14:00 +32°C° 0 mm 4 mps 619 mmHg 19%
    15:00 +32°C° 0 mm 4 mps 619 mmHg 19%
    16:00 +30°C° 0 mm 5 mps 618 mmHg 22%
    17:00 +29°C° 0 mm 5 mps 618 mmHg 26%
    18:00 +27°C° 0 mm 5 mps 617 mmHg 29%
    19:00 +25°C° 0 mm 4 mps 617 mmHg 35%
    20:00 +22°C° 0 mm 3 mps 617 mmHg 40%
    21:00 +20°C° 0 mm 2 mps 617 mmHg 46%
    22:00 +21°C° 0 mm 1 mps 617 mmHg 50%
    23:00 +20°C° 0 mm 1 mps 617 mmHg 54%

    30 April, Tuesday

    Time Temperature Precipitation Wind Pressure Humidity
    00:00 +19°C° 0 mm 1 mps 616 mmHg 58%
    01:00 +19°C° 0 mm 1 mps 616 mmHg 61%
    02:00 +18°C° 0 mm 1 mps 615 mmHg 64%
    03:00 +18°C° 0 mm 1 mps 615 mmHg 67%
    04:00 +16°C° 0 mm 1 mps 615 mmHg 69%
    05:00 +16°C° 0 mm 1 mps 615 mmHg 71%
    06:00 +16°C° 0 mm 1 mps 615 mmHg 73%
    07:00 +19°C° 0 mm 1 mps 616 mmHg 62%
    08:00 +20°C° 0 mm 0 mps 618 mmHg 52%
    09:00 +23°C° 0 mm 0 mps 619 mmHg 42%
    10:00 +27°C° 0 mm 1 mps 619 mmHg 36%
    11:00 +28°C° 0 mm 1 mps 619 mmHg 31%
    12:00 +30°C° 0 mm 2 mps 620 mmHg 25%
    13:00 +30°C° 0 mm 3 mps 619 mmHg 25%
    14:00 +31°C° 0 mm 3 mps 619 mmHg 24%
    15:00 +32°C° 0 mm 4 mps 618 mmHg 24%
    16:00 +30°C° 0 mm 4 mps 618 mmHg 28%
    17:00 +28°C° 0 mm 4 mps 618 mmHg 32%
    18:00 +27°C° 0 mm 5 mps 617 mmHg 36%
    19:00 +25°C° 0 mm 4 mps 617 mmHg 42%
    20:00 +22°C° 0 mm 3 mps 617 mmHg 48%
    21:00 +21°C° 0 mm 2 mps 617 mmHg 54%
    22:00 +21°C° 0 mm 1 mps 617 mmHg 58%
    23:00 +20°C° 0 mm 1 mps 617 mmHg 62%
    Show more